• Join FlightAware (Why Join?)
  • Login
  • US Flag 
03:29AM EST


 

Airport Tracker/Info


-or-


 

Live Flight TrackerFlight Track Log ✈ EJA922 ✈ 11-Feb-2014 ✈ KLAS - KSUA

Flight Track Log - Related Links

Times and Time Zones

All times are in EST time to prevent confusion due to time zone crossing. See the EJA922 flight status page for this flight to view local times or setup timezone preferences in your user account.

Time Position Orientation Groundspeed Altitude Reporting Facility
EST Latitude Longitude Course Direction KTS MPH feet Rate Location/Type
09:36PM 36.1217 -115.1397 39° Northeast 217 250 4,200  Level Los Angeles Center
09:36PM 36.1253 -115.1361 39° Northeast 215 247 4,500 3,403 Climbing Los Angeles Center
09:37PM 36.1375 -115.0442 81° East 265 305 8,000 3,344 Climbing Los Angeles Center
09:38PM 36.1236 -114.9444 100° East 301 346 11,300 2,878 Climbing Los Angeles Center
09:39PM 36.0992 -114.8181 103° East 374 430 13,900 2,537 Climbing Los Angeles Center
09:40PM 36.0747 -114.6864 103° East 393 452 16,500 2,000 Climbing Los Angeles Center
09:41PM 36.0478 -114.5467 103° East 415 478 18,000 1,403 Climbing Los Angeles Center
09:42PM 36.0192 -114.4017 104° East 431 496 19,400 1,415 Climbing Los Angeles Center
09:43PM 35.9900 -114.2533 104° East 443 510 20,900 1,415 Climbing Los Angeles Center
09:44PM 35.9614 -114.1011 103° East 452 520 22,300 1,317 Climbing Los Angeles Center
09:45PM 35.9383 -113.9469 100° East 456 525 23,600 1,415 Climbing Los Angeles Center
09:46PM 35.9567 -113.7567 83° East 464 534 25,200 1,403 Climbing Los Angeles Center
09:47PM 35.9689 -113.5936 85° East 475 547 26,500 1,258 Climbing Los Angeles Center
09:48PM 35.9817 -113.4272 85° East 484 557 27,800 1,366 Climbing Los Angeles Center
09:49PM 35.9944 -113.2572 85° East 492 566 29,300 1,463 Climbing Los Angeles Center
09:50PM 36.0056 -113.0858 85° East 500 575 30,800 1,512 Climbing Los Angeles Center
09:52PM 36.0133 -112.9475 86° East 504 580 32,400 2,049 Climbing Los Angeles Center
09:53PM 35.9806 -112.7411 101° East 513 590 35,000 1,258 Climbing Los Angeles Center
09:54PM 35.9425 -112.5419 103° East 530 610 35,000 522 Level Los Angeles Center
09:55PM 35.8847 -112.2444 103° East 556 640 36,400 900 Climbing Los Angeles Center
09:56PM 35.8489 -112.0606 103° East 555 639 37,400 976 Climbing Los Angeles Center
09:57PM 35.8117 -111.8744 104° East 558 642 38,400 919 Climbing Los Angeles Center
09:58PM 35.7747 -111.6925 104° East 554 638 39,300 928 Climbing Los Angeles Center
09:59PM 35.7514 -111.5847 105° East 549 632 39,900 1,063 Climbing Albuquerque Center
10:00PM 35.7103 -111.3775 104° East 538 619 41,000 537 Climbing Albuquerque Center
10:01PM 35.6781 -111.2075 103° East 535 616 41,000  Level Albuquerque Center
10:02PM 35.6400 -111.0314 105° East 547 629 41,000  Level Albuquerque Center
10:03PM 35.5958 -110.8236 105° East 559 643 41,000  Level Albuquerque Center
10:04PM 35.5589 -110.6442 104° East 563 648 41,000  Level Albuquerque Center
10:05PM 35.5150 -110.4344 104° East 567 652 41,000  Level Albuquerque Center
10:06PM 35.4769 -110.2536 104° East 570 656 41,000  Level Albuquerque Center
10:07PM 35.4386 -110.0736 105° East 572 658 41,000  Level Albuquerque Center
10:08PM 35.3947 -109.8639 104° East 571 657 41,000  Level Albuquerque Center
10:09PM 35.3536 -109.6814 105° East 575 662 41,000  Level Albuquerque Center
10:10PM 35.3136 -109.4994 105° East 580 667 41,000  Level Albuquerque Center
10:11PM 35.2683 -109.2889 105° East 577 664 41,000  Level Albuquerque Center
10:12PM 35.2281 -109.1094 105° East 576 663 41,000  Level Albuquerque Center
10:13PM 35.1800 -108.9000 106° East 576 663 41,000  Level Albuquerque Center
10:14PM 35.1397 -108.7197 105° East 576 663 41,000  Level Albuquerque Center
10:15PM 35.0983 -108.5392 106° East 578 665 41,000  Level Albuquerque Center
10:16PM 35.0486 -108.3269 106° East 581 669 41,000  Level Albuquerque Center
10:17PM 35.0069 -108.1433 105° East 585 673 41,000  Level Albuquerque Center
10:18PM 34.9586 -107.9281 105° East 587 676 41,000  Level Albuquerque Center
10:19PM 34.9139 -107.7397 106° East 586 674 41,000  Level Albuquerque Center
10:20PM 34.8681 -107.5503 106° East 585 673 41,000  Level Albuquerque Center
10:21PM 34.8192 -107.3492 106° East 591 680 41,000  Level Albuquerque Center
10:22PM 34.7742 -107.1611 106° East 584 672 41,000  Level Albuquerque Center
10:23PM 34.7275 -106.9742 107° East 581 669 41,000  Level Albuquerque Center
10:24PM 34.6842 -106.7967 106° East 579 666 41,000  Level Albuquerque Center
10:25PM 34.6381 -106.6097 107° East 579 666 41,000  Level Albuquerque Center
10:26PM 34.5908 -106.4225 107° East 582 670 41,000  Level Albuquerque Center
10:27PM 34.5364 -106.2067 107° East 575 662 41,000  Level Albuquerque Center
10:28PM 34.4881 -106.0172 107° East 581 669 41,000  Level Albuquerque Center
10:29PM 34.4414 -105.8311 107° East 578 665 41,000  Level Albuquerque Center
10:30PM 34.3936 -105.6464 107° East 574 661 41,000  Level Albuquerque Center
10:31PM 34.3456 -105.4611 107° East 574 661 41,000  Level Albuquerque Center
10:32PM 34.2978 -105.2775 107° East 571 657 41,000  Level Albuquerque Center
10:34PM 34.2508 -105.0950 107° East 568 654 41,000  Level Albuquerque Center
10:35PM 34.2014 -104.9108 108° East 571 657 41,000  Level Albuquerque Center
10:36PM 34.1528 -104.7281 108° East 569 655 41,000  Level Albuquerque Center
10:37PM 34.1036 -104.5425 108° East 576 663 41,000  Level Albuquerque Center
10:38PM 34.0550 -104.3600 108° East 572 658 41,000  Level Albuquerque Center
10:39PM 34.0008 -104.1578 108° East 576 663 41,000  Level Albuquerque Center
10:40PM 33.9506 -103.9756 108° East 575 662 41,000  Level Albuquerque Center
10:41PM 33.9011 -103.7947 108° East 571 657 41,000  Level Albuquerque Center
10:42PM 33.8561 -103.6281 108° East 567 652 41,000  Level Albuquerque Center
10:43PM 33.8069 -103.4467 108° East 568 654 41,000  Level Albuquerque Center
10:44PM 33.7561 -103.2611 108° East 564 649 41,000  Level Albuquerque Center
10:45PM 33.7058 -103.0881 109° East 556 640 41,000  Level Albuquerque Center
10:46PM 33.6556 -102.9147 109° East 552 635 41,000  Level Albuquerque Center
10:47PM 33.5953 -102.7025 109° East 557 641 41,000  Level Fort Worth Center
10:48PM 33.5447 -102.5275 109° East 555 639 41,000  Level Fort Worth Center
10:49PM 33.4939 -102.3497 109° East 560 644 41,000  Level Fort Worth Center
10:50PM 33.4425 -102.1733 109° East 561 646 41,000  Level Fort Worth Center
10:51PM 33.3892 -101.9939 110° East 566 651 41,000  Level Fort Worth Center
10:52PM 33.3375 -101.8142 109° East 569 655 41,000  Level Fort Worth Center
10:53PM 33.2828 -101.6306 110° East 568 654 41,000  Level Fort Worth Center
10:54PM 33.2303 -101.4567 110° East 569 655 41,000  Level Fort Worth Center
10:55PM 33.1803 -101.2892 110° East 569 655 41,000  Level Fort Worth Center
10:56PM 33.1264 -101.1111 110° East 571 657 41,000  Level Fort Worth Center
10:57PM 33.0644 -100.8972 109° East 570 656 41,000  Level Fort Worth Center
10:58PM 33.0103 -100.7244 110° East 562 647 41,000  Level Fort Worth Center
10:59PM 32.9553 -100.5500 111° Southeast 561 646 41,000  Level Fort Worth Center
11:00PM 32.9014 -100.3764 110° East 561 646 41,000  Level Fort Worth Center
11:01PM 32.8478 -100.2017 110° East 561 646 41,000  Level Fort Worth Center
11:02PM 32.7939 -100.0278 110° East 560 644 41,000  Level Fort Worth Center
11:03PM 32.7386 -99.8461 110° East 556 640 41,000  Level Fort Worth Center
11:04PM 32.6858 -99.6892 112° Southeast 560 644 41,000  Level Fort Worth Center
11:05PM 32.6244 -99.4939 110° East 561 646 41,000  Level Fort Worth Center
11:06PM 32.5689 -99.3222 111° Southeast 558 642 41,000  Level Fort Worth Center
11:07PM 32.5131 -99.1506 111° Southeast 558 642 41,000  Level Fort Worth Center
11:08PM 32.4586 -98.9811 111° Southeast 553 636 41,000  Level Fort Worth Center
11:09PM 32.4033 -98.8114 111° Southeast 552 635 41,000  Level Fort Worth Center
11:10PM 32.3456 -98.6344 111° Southeast 553 636 41,000  Level Fort Worth Center
11:11PM 32.2908 -98.4650 111° Southeast 554 638 41,000  Level Fort Worth Center
11:12PM 32.2358 -98.2964 111° Southeast 554 638 41,000  Level Fort Worth Center
11:13PM 32.1792 -98.1275 112° Southeast 555 639 41,000  Level Fort Worth Center
11:14PM 32.1222 -97.9572 112° Southeast 560 644 41,000  Level Fort Worth Center
11:15PM 32.0669 -97.7889 111° Southeast 556 640 41,000  Level Fort Worth Center
11:16PM 32.0106 -97.6219 112° Southeast 554 638 41,000  Level Fort Worth Center
11:17PM 31.9503 -97.4431 112° Southeast 553 636 41,000  Level Fort Worth Center
11:18PM 31.8917 -97.2706 112° Southeast 557 641 41,000  Level Fort Worth Center
11:19PM 31.8325 -97.0997 112° Southeast 556 640 41,000  Level Fort Worth Center
11:20PM 31.7817 -96.9536 112° Southeast 560 644 41,000  Level Houston Center
11:21PM 31.7233 -96.7811 112° Southeast 559 643 41,000  Level Houston Center
11:22PM 31.6625 -96.6092 113° Southeast 562 647 41,000  Level Houston Center
11:23PM 31.6025 -96.4378 112° Southeast 560 644 41,000  Level Houston Center
11:24PM 31.5428 -96.2675 112° Southeast 559 643 41,000  Level Houston Center
11:25PM 31.4833 -96.0969 112° Southeast 559 643 41,000  Level Houston Center
11:26PM 31.4153 -95.9081 113° Southeast 557 641 41,000  Level Houston Center
11:27PM 31.3553 -95.7389 113° Southeast 562 647 41,000  Level Houston Center
11:28PM 31.2950 -95.5697 113° Southeast 564 649 41,000  Level Houston Center
11:29PM 31.2336 -95.3994 113° Southeast 569 655 41,000  Level Houston Center
11:30PM 31.1728 -95.2286 113° Southeast 573 659 41,000  Level Houston Center
11:31PM 31.1131 -95.0647 113° Southeast 567 652 41,000  Level Houston Center
11:32PM 31.0517 -94.8958 113° Southeast 565 650 41,000  Level Houston Center
11:33PM 30.9911 -94.7306 113° Southeast 565 650 41,000  Level Houston Center
11:34PM 30.9292 -94.5622 113° Southeast 570 656 41,000  Level Houston Center
11:35PM 30.8686 -94.3947 113° Southeast 567 652 41,000  Level Houston Center
11:36PM 30.8050 -94.2242 113° Southeast 573 659 41,000  Level Houston Center
11:37PM 30.7403 -94.0497 113° Southeast 570 656 41,000  Level Houston Center
11:38PM 30.6744 -93.8814 114° Southeast 571 657 41,000  Level Houston Center
11:39PM 30.6108 -93.7094 113° Southeast 575 662 41,000  Level Houston Center
11:40PM 30.5447 -93.5372 114° Southeast 577 664 41,000  Level Houston Center
11:41PM 30.4783 -93.3644 114° Southeast 571 657 41,000  Level Houston Center
11:42PM 30.4128 -93.1944 114° Southeast 570 656 41,000  Level Houston Center
11:43PM 30.3483 -93.0253 114° Southeast 571 657 41,000 347 Level Houston Center
11:44PM 30.2869 -92.8678 114° Southeast 540 621 41,700 843 Climbing Houston Center
11:45PM 30.2283 -92.7136 114° Southeast 528 608 42,700 645 Climbing Houston Center
11:46PM 30.1664 -92.5564 114° Southeast 534 615 43,000 149 Climbing Houston Center
11:47PM 30.1033 -92.3958 114° Southeast 547 629 43,000  Level Houston Center
11:48PM 30.0389 -92.2325 114° Southeast 558 642 43,000  Level Houston Center
11:49PM 29.9739 -92.0681 114° Southeast 563 648 43,000 -50 Level Houston Center
11:50PM 29.9094 -91.9047 114° Southeast 561 646 42,900  Descending Houston Center
11:51PM 29.8336 -91.7156 115° Southeast 564 649 43,000  Climbing Houston Center
11:53PM 29.7733 -91.5656 115° Southeast 567 652 42,900  Descending Houston Center
11:54PM 29.7067 -91.4008 115° Southeast 569 655 43,000  Climbing Houston Center
11:55PM 29.6419 -91.2367 114° Southeast 568 654 42,900  Descending Houston Center
11:56PM 29.5742 -91.0742 116° Southeast 565 650 43,000 50 Climbing Houston Center
11:57PM 29.5094 -90.9147 115° Southeast 557 641 43,000  Level Houston Center
11:58PM 29.4433 -90.7508 115° Southeast 567 652 43,000  Level Houston Center
11:59PM 29.3769 -90.5878 115° Southeast 568 654 43,000  Level Houston Center
12:00AM 29.3081 -90.4253 116° Southeast 569 655 43,000  Level Houston Center
12:01AM 29.2275 -90.2297 115° Southeast 569 655 43,000  Level Houston Center
12:02AM 29.1608 -90.0650 115° Southeast 572 658 43,000  Level Houston Center
12:03AM 29.0986 -89.8989 113° Southeast 572 658 43,000  Level Houston Center
12:04AM 29.0358 -89.7322 113° Southeast 574 661 43,000  Level Houston Center
12:05AM 28.9728 -89.5650 113° Southeast 576 663 43,000  Level Houston Center
12:06AM 28.9097 -89.3969 113° Southeast 578 665 43,000  Level Houston Center
12:07AM 28.8461 -89.2308 114° Southeast 575 662 43,000  Level Houston Center
12:08AM 28.7831 -89.0644 113° Southeast 574 661 43,000  Level Houston Center
12:09AM 28.7197 -88.8992 114° Southeast 573 659 43,000  Level Houston Center
12:10AM 28.6561 -88.7328 114° Southeast 575 662 43,000  Level Houston Center
12:11AM 28.5917 -88.5675 114° Southeast 573 659 43,000 -50 Level Houston Center
12:12AM 28.5275 -88.4019 114° Southeast 574 661 42,900  Descending Houston Center
12:13AM 28.4622 -88.2375 114° Southeast 573 659 43,000  Climbing Houston Center
12:14AM 28.3914 -88.0525 113° Southeast 576 663 42,900  Descending Houston Center
12:15AM 28.3381 -87.8786 109° East 582 670 43,000 50 Climbing Houston Center
12:16AM 28.2883 -87.7033 108° East 585 673 43,000  Level Houston Center
12:17AM 28.2375 -87.5289 108° East 586 674 43,000 248 Level Houston Center
12:18AM 28.1867 -87.3550 108° East 584 672 43,500 496 Climbing Houston Center
12:19AM 28.1358 -87.1839 109° East 577 664 44,000 550 Climbing Houston Center
12:20AM 28.0911 -87.0125 106° East 572 658 44,600 496 Climbing Houston Center
12:21AM 28.0497 -86.8403 105° East 570 656 45,000 182 Climbing Houston Center
12:22AM 27.9958 -86.6247 106° East 569 655 45,000  Level Jacksonville Center
12:23AM 27.9544 -86.4564 106° East 564 649 45,000 -50 Level Jacksonville Center
12:24AM 27.9114 -86.2836 106° East 570 656 44,900  Descending Jacksonville Center
12:25AM 27.8658 -86.1036 106° East 570 656 45,000 50 Climbing Jacksonville Center
12:26AM 27.8242 -85.9333 105° East 570 656 45,000  Level Jacksonville Center
12:27AM 27.7761 -85.7536 107° East 570 656 45,000  Level Jacksonville Center
12:28AM 27.7350 -85.5889 106° East 596 686 45,000  Level Miami Center
12:29AM 27.6931 -85.4194 106° East 584 672 45,000  Level Miami Center
12:30AM 27.6397 -85.2306 108° East 578 665 45,000  Level Miami Center
12:31AM 27.6058 -85.0550 102° East 578 665 45,000  Level Miami Center
12:32AM 27.5661 -84.8744 104° East 578 665 45,000  Level Miami Center
12:33AM 27.5403 -84.6997 99° East 578 665 45,000  Level Miami Center
12:34AM 27.5103 -84.5200 101° East 572 658 45,000  Level Miami Center
12:35AM 27.4800 -84.3425 101° East 567 652 45,000  Level Miami Center
12:36AM 27.4494 -84.1653 101° East 567 652 45,000  Level Miami Center
12:37AM 27.4167 -83.9881 102° East 572 658 45,000  Level Miami Center
12:38AM 27.3858 -83.8086 101° East 572 658 45,000  Level Miami Center
12:39AM 27.3547 -83.6292 101° East 572 658 45,000 -550 Level Miami Center
12:40AM 27.3233 -83.4522 101° East 572 658 43,900 -1,300 Descending Miami Center
12:41AM 27.2936 -83.2753 101° East 572 658 42,400 -1,780 Descending Miami Center
12:42AM 27.2639 -83.0986 101° East 572 658 40,400 -2,050 Descending Miami Center
12:43AM 27.2281 -82.9147 102° East 572 658 38,300 -2,016 Descending Miami Center
12:44AM 27.1956 -82.7356 101° East 578 665 36,300 -2,000 Descending Miami Center
12:45AM 27.1633 -82.5544 101° East 583 671 34,300 -2,250 Descending Miami Center
12:46AM 27.1325 -82.3825 101° East 583 671 31,800 -2,600 Descending Miami Center
12:47AM 27.1036 -82.2064 100° East 570 656 29,100 -2,695 Descending Miami Center
12:48AM 27.1078 -82.0294 88° East 570 656 26,500 -2,050 Descending Miami Center
12:49AM 27.1156 -81.8664 87° East 539 620 25,000 -1,200 Descending Miami Center
12:50AM 27.1228 -81.7222 87° East 520 598 24,100 -1,884 Descending Miami Center
12:51AM 27.1281 -81.5636 88° East 513 590 21,200 -3,124 Descending Miami Center
12:52AM 27.1372 -81.4056 86° East 507 583 17,800 -3,350 Descending Miami Center
12:53AM 27.1439 -81.2517 87° East 469 540 14,500 -2,773 Descending Miami Center
12:54AM 27.1497 -81.1331 87° East 415 478 12,300 -2,017 Descending Miami Center
12:55AM 27.1525 -81.0350 88° East 361 415 10,500 -1,700 Descending Miami Center
12:56AM 27.1556 -80.9278 88° East 318 366 8,900 -1,550 Descending Miami Center
12:57AM 27.1600 -80.8369 87° East 299 344 7,400 -1,525 Descending Miami Center
12:58AM 27.1647 -80.7461 87° East 289 333 5,800 -1,450 Descending Miami Center
12:59AM 27.1856 -80.6675 73° East 289 333 4,500 -1,322 Descending Miami Center
01:00AM 27.2044 -80.5839 76° East 282 325 3,200 -1,000 Descending Miami Center
01:01AM 27.2275 -80.5006 73° East 258 297 2,500 -350 Descending Miami Center
01:02AM 27.2439 -80.4242 76° East 252 290 2,500  Level Miami Center
01:03AM 27.2264 -80.3697 110° East 212 244 2,500 -450 Level Miami Center
01:04AM 27.2111 -80.3156 108° East 190 219 1,600 -836 Descending Miami Center
01:05AM 27.1975 -80.2731 110° East 145 167 800 -774 Descending Miami Center
01:07AM 27.1817 -80.2213 90° East  Level Estimated
01:14AM 27.1817 -80.2213 90° East  Level Estimated
01:15AM 27.1817 -80.2213 90° East  Level Estimated